Other Public Products
Issued by NWS Grand Forks, ND

Home | Current Version | Previous Version | Text Only | Print | Product List | Glossary Off
Versions: 1 2 3 4 5 6 7 8 9 10 11 12 13 14 15 16 17 18 19 20 21 22 23 24 25 26 27 28 29 30 31 32 33 34 35 36 37 38 39 40 41 42 43 44 45 46 47 48 49 50

827
FPUS83 KFGF 112331
OPUFGF
PRAIRIE TO PINES WEATHER ROUNDUP
NATIONAL WEATHER SERVICE EASTERN NORTH DAKOTA/GRAND FORKS ND
500 PM CST THU FEB 11 2016

 **SATELLITE DATA USED TO AUGMENT SKY COVER AT AUTOMATED STATIONS**
 *****  WEATHER ACROSS EASTERN NORTH DAKOTA  *****

CITY           SKY/WX    TMP DP  RH WIND       PRES   REMARKS
GRAND FORKS    FLURRIES  16   8  71 NW8       30.25R WCI   5
GRAND FORKS AF FLURRIES  14   7  73 N7        30.24R WCI   4
GRAND CITY NWS NOT AVBL
BUXTON           N/A     13   8  80 NW5         N/A  WCI   6
DEVILS LAKE    CLOUDY     9   4  80 N7        30.23R WCI  -2
FARGO          CLOUDY    14   3  61 N7        30.24R WCI   4
WAHPETON ARPT  CLOUDY    14  10  85 NW6       30.24R WCI   5
$$

 *****  WEATHER ACROSS CENTRAL AND WESTERN NORTH DAKOTA  *****

CITY           SKY/WX    TMP DP  RH WIND       PRES   REMARKS
JAMESTOWN      CLOUDY    16  11  80 N10       30.19R WCI   4
BISMARCK       CLOUDY    25  16  68 NE8       30.20R WCI  16
MINOT          CLOUDY    21  11  65 NW7       30.22R WCI  12
MINOT AFB      CLOUDY    20  14  77 N1        30.21R
GARRISON         N/A     20  14  77 N9        30.18R WCI   9
WILLISTON      PTCLDY    24  16  71 N8        30.23R WCI  15
DICKINSON      CLOUDY    23  18  81 N5        30.13R WCI  17
HETTINGER      CLOUDY    26  21  81 N7        30.14R WCI  18
$$

 *****  OTHER OBSERVATIONS NORTHEAST NORTH DAKOTA  *****

CITY           SKY/WX    TMP DP  RH WIND       PRES   REMARKS
WALHALLA       FAIR      10   7  85 N12       30.27R WCI  -4
LANGDON        CLOUDY    10   5  79 N10       30.21R WCI  -3
CAVALIER       CLOUDY    10   5  79 N8        30.27R WCI  -1
GRAFTON        CLOUDY    12   7  79 N14       30.28R WCI  -3
CANDO          CLOUDY    10   7  85 N9        30.25R WCI  -2
FORT TOTTEN      N/A     11   5  75 N5        29.95S WCI   3
ROLLA          CLOUDY    10   7  85 N12       30.21R WCI  -4
RUGBY          FAIR      14  10  85 NW8       30.22R WCI   3
 ***** THE ABOVE OBSERVATIONS ARE NON NWS ARE NOT QUALITY
        CONTROLLED AND MAY MIS-REPORT RAIN FOR SNOW...
$$

 *****  OTHER OBSERVATIONS SOUTHEAST NORTH DAKOTA *****

CITY           SKY/WX    TMP DP  RH WIND       PRES   REMARKS
COOPERSTOWN    NOT AVBL
VALLEY CITY    CLOUDY    14  12  92 N8        30.22R WCI   3
OAKES          CLOUDY    16  14  93 N9        30.20R WCI   4
GWINNER        CLOUDY    18  12  79 N6        30.21R WCI   9
SHEYENNE NWR     N/A     14   7  72 N5        29.95S WCI   6
BUFFALO          N/A     -3   4 100 N2          N/A
WYNDMERE         N/A     14  10  85 N6          N/A  WCI   5
 ***** THE ABOVE OBSERVATIONS ARE NON NWS ARE NOT QUALITY
       CONTROLLED AND MAY MIS-REPORT RAIN FOR SNOW...
$$

  *****  WEATHER ACROSS NORTHERN MINNESOTA  *****

CITY           SKY/WX    TMP DP  RH WIND       PRES   REMARKS
FLAG ISLAND    CLOUDY    10   1  67 NW15      30.15S WCI  -6
WARROAD        CLOUDY    10   3  72 W9        30.18R WCI  -2
ROSEAU         CLOUDY    12   5  73 W9        30.19S WCI   0
HALLOCK        CLOUDY    12   5  73 N12       30.25R WCI  -2
THF RVR FALLS  PTCLDY    10   3  72 NW8       30.22R WCI  -1
HALSTAD          N/A     13  10  89 NW3         N/A
FOSSTON        CLOUDY     9   0  66 W6        30.20S WCI  -1
BAUDETTE       CLOUDY    11  -1  58 W10       30.14R WCI  -3
WASKISH        CLOUDY    10   3  72 W8        30.16S WCI  -1
CROOKSTON      FLURRIES  14   9  79 NW7       30.25R WCI   4
$$
  *****  WEATHER ACROSS CENTRAL AND WEST MINNESOTA  *****

CITY           SKY/WX    TMP DP  RH WIND       PRES   REMARKS
BEMIDJI        CLOUDY    11  -2  56 W10       30.16R WCI  -2
PARK RAPIDS    CLOUDY    14   0  53 W8        30.15S WCI   3
WADENA         FLURRIES  12   7  79 W7        30.17S WCI   2
DETROIT LAKES  FLURRIES  14   5  67 NW8       30.20R WCI   3
MOORHEAD       MIX PCPN  14   5  67 N6        30.24R WCI   5
FERGUS FALLS   LGT SNOW  14   9  79 NW3       30.24R
ELBOW LAKE     LGT SNOW  13  10  90 SW3       30.21R
MORRIS MN      CLOUDY    16   9  73 CALM      30.19S
STAPLES        FLURRIES  12   7  79 W7        30.17S WCI   2
WHEATON        MIX PCPN  18  12  79 CALM      30.23R
$$
  *****  WEATHER ELSEWHERE ACROSS MINNESOTA  *****

CITY           SKY/WX    TMP DP  RH WIND       PRES   REMARKS
DULUTH         MOCLDY    12  -4  48 W14       30.11R WCI  -3
INTRNTL FALLS  CLOUDY    11  -3  53 W10       30.12S WCI  -3
ELY            CLOUDY     9  -2  61 W7        30.08S WCI  -3
CLOQUET        CLOUDY    12  -6  44 W7        30.14R WCI   2
BRAINERD       CLOUDY    13   1  59 SW8       30.18R WCI   2
HIBBING        CLOUDY    10  -8  44 W8        30.12S WCI  -2
ALEXANDRIA     LGT SNOW  13   7  77 W5        30.18R WCI   5
SAINT CLOUD    LGT SNOW  14   8  77 SW6       30.21S WCI   5
MINNEAPOLIS    CLOUDY    16   0  49 SW8       30.24S WCI   5
$$

  *****  WEATHER ACROSS SOUTH DAKOTA  *****

CITY           SKY/WX    TMP DP  RH WIND       PRES   REMARKS
SIOUX FALLS    LGT SNOW  18  13  80 SE6       30.17R WCI  10
BROOKINGS      FLURRIES  18  12  79 SW7       30.14S WCI   8
WATERTOWN      FLURRIES  18  13  80 SW6       30.12R WCI  10
HURON          LGT SNOW  23  19  85 SE3       30.17R FOG
SISSETON         N/A     17  12  80 CALM      30.18R
ABERDEEN       CLOUDY    23  16  74 N5        30.18R WCI  17
MITCHELL       LGT SNOW  21  18  88 SE7       30.17R FOG     WCI  12
PIERRE         CLOUDY    30  25  81 E9        30.12R WCI  22
MOBRIDGE       CLOUDY    29  24  82 N6        30.13R WCI  23
RAPID CITY     MOSUNNY   52  30  43 N24G37    30.05
$$

  *****  SOME WEATHER IN NEARBY STATES *****

CITY           SKY/WX    TMP DP  RH WIND       PRES   REMARKS
GLASGOW MT     CLOUDY    32  24  72 CALM      30.21R
GREAT FALLS MT CLOUDY    50  24  36 N14       30.20R
CHEYENNE WY    CLOUDY    52  25  35 NW21G35   30.15R
SCOTTSBLUFF NE CLOUDY    56  26  31 NW24G32   30.12R
OMAHA NE       CLOUDY    28  20  71 CALM      30.19S
DES MOINES IA  LGT SNOW  21   8  57 SE8       30.25S WCI  11
DAVENPORT IA   CLEAR     21   3  45 CALM      30.28S
CHICAGO IL     PTCLDY    20   2  45 W5        30.27S WCI  13
EAU CLAIRE WI  CLOUDY    15  -3  44 W6        30.22R WCI   6
LA CROSSE WI   MOCLDY    16  -1  47 S10       30.26R WCI   4
$$

  *****  SOME NATIONAL WEATHER *****

CITY           SKY/WX    TMP DP  RH WIND       PRES   REMARKS
LA GUARDIA NY  MOCLDY    24   1  36 W24G39    30.03R WCI   8
RALEIGH NC     PTCLDY    37   9  31 VRB3      30.20R
ATLANTA GA     FAIR      52  24  33 W5        30.15R
NEW ORLEANS LA FAIR      72  52  49 SW15      30.15R
OKLAHOMA CITY  PTSUNNY   58  31  35 N6        30.12F
ALBUQUERQUE NM MOSUNNY   66  10  11 NW12      30.25S
SALT LAKE CITY PTSUNNY   33  27  78 NW6       30.42F HAZE
LOS ANGELES CA MOSUNNY   73  43  33 W13       30.06S
BOISE ID       PTSUNNY   47  34  60 E5        30.31F
SEATTLE WA     LGT RAIN  52  48  86 CALM      30.11S
$$

*** WEATHER ACROSS MANITOBA...SASKATCHEWAN AND ONTARIO ***
                ***ONTARIO***

CITY           SKY/WX    TMP DP  RH WIND       PRES   REMARKS
GERALDTON      MOCLDY     5  -2  72 W7        29.90F WCI  -7
THUNDER BAY    MOCLDY    12   3  67 W10       30.05F WCI  -1
SIOUX LOOKOUT  FLURRIES   7  -2  66 W10G18    30.00S WCI  -8
TORONTO        PTCLDY    10  -6  48 NW18      30.16R WCI  -8
BIG TROUT LK   PTCLDY   -18 -26  69 NW9G17    30.03R WCI -38
PICKLE LAKE    FLURRIES   1  -8  66 NW13G24   29.90S WCI -16
DRYDEN         MOCLDY     7   1  78 W14       30.03F WCI -10
KENORA         MOCLDY     9   0  66 W12G17    30.10R WCI  -6
$$
                *** MANITOBA***

CITY           SKY/WX    TMP DP  RH WIND       PRES   REMARKS
BRANDON        FLURRIES  12   5  73 N9        30.26R WCI   0
DAUPHIN        CLEAR      5  -2  72 W6        30.29R WCI  -6
ISLAND LAKE    FLURRIES -11 -17  77 NW9       30.17R WCI -29
PILOT MOUND      N/A      9   5  85 NW8         N/A  WCI  -4
THE PAS        PTCLDY     1  -8  66 NW14      30.34R WCI -17
THOMPSON       PTCLDY   -15 -24  64 NW9       30.32R WCI -33
WINNIPEG       PTCLDY     7   0  72 NW14      30.26R WCI -10
LYNN LAKE      CLEAR    -17 -24  70 N10G17    30.39R WCI -37
CHURCHILL      CRYSTALS -24 -31  69 NW26G33   30.28R VSB 1/4 WCI -57
GILLAM         PTCLDY   -18 -29  57 N14       30.24R WCI -42
$$
                ***SASKATCHEWAN***

CITY           SKY/WX    TMP DP  RH WIND       PRES   REMARKS
ESTEVAN        CLOUDY    21  14  73 NW12      30.23  WCI   9
KINDERSLEY     FLURRIES  18  14  86 E7        30.25R WCI   8
LLOYDMINSTER   FLURRIES  12   9  85 E9        30.29R WCI   0
PRINCE ALBERT  CLOUDY     9   0  66 NW3       30.36R
REGINA         CLOUDY    16   9  73 NW12      30.27R WCI   3
YORKTON        CLEAR      3   0  85 NW5       30.27R WCC1F1C2F2C3F3C4F4C5F5C6F6C7F7C8F8C9F9CaFaCbFbCcFcCdFdCe!



USA.gov is the U.S. government's official web portal to all federal, state and local government web resources and services.